TimeAKDT,TemperatureF,Dew PointF,Humidity,Sea Level PressureIn,VisibilityMPH,Wind Direction,Wind SpeedMPH,Gust SpeedMPH,PrecipitationIn,Events,Conditions,WindDirDegrees,DateUTC
12:53 AM,28.9,27.0,92,29.79,10.0,Calm,Calm,-,N/A,,Clear,0,2013-03-21 08:53:00
1:53 AM,30.0,27.0,88,29.81,10.0,Calm,Calm,-,N/A,,Mostly Cloudy,0,2013-03-21 09:53:00
2:53 AM,30.9,28.9,92,29.83,10.0,Calm,Calm,-,0.00,,Overcast,0,2013-03-21 10:53:00
3:05 AM,33.8,28.4,81,29.83,10.0,Calm,Calm,-,N/A,,Overcast,0,2013-03-21 11:05:00
3:19 AM,33.8,30.2,87,29.83,2.5,Calm,Calm,-,0.00,Snow,Light Snow,0,2013-03-21 11:19:00
3:28 AM,33.8,30.2,87,29.83,1.8,Calm,Calm,-,0.00,Snow,Light Snow,0,2013-03-21 11:28:00
3:47 AM,33.8,30.2,87,29.84,2.0,Calm,Calm,-,0.01,Snow,Light Snow,0,2013-03-21 11:47:00
3:53 AM,33.1,30.9,92,29.85,3.0,Calm,Calm,-,0.01,Snow,Light Snow,0,2013-03-21 11:53:00
4:18 AM,32.0,30.2,93,29.85,9.0,Calm,Calm,-,0.01,,Overcast,0,2013-03-21 12:18:00
4:53 AM,30.0,28.9,96,29.86,10.0,Calm,Calm,-,0.01,,Clear,0,2013-03-21 12:53:00
5:17 AM,30.2,28.4,93,29.86,10.0,Calm,Calm,-,N/A,,Mostly Cloudy,0,2013-03-21 13:17:00
5:24 AM,30.2,30.2,100,29.86,10.0,Calm,Calm,-,N/A,,Mostly Cloudy,0,2013-03-21 13:24:00
5:53 AM,30.0,28.9,96,29.88,10.0,Calm,Calm,-,N/A,,Mostly Cloudy,0,2013-03-21 13:53:00
6:28 AM,30.2,28.4,93,29.88,10.0,Calm,Calm,-,N/A,,Overcast,0,2013-03-21 14:28:00
6:53 AM,30.0,28.9,96,29.89,10.0,Calm,Calm,-,0.00,,Overcast,0,2013-03-21 14:53:00
7:53 AM,30.0,28.9,96,29.91,10.0,Calm,Calm,-,N/A,,Partly Cloudy,0,2013-03-21 15:53:00
8:53 AM,36.0,30.9,82,29.94,10.0,Variable,3.5,-,N/A,,Scattered Clouds,0,2013-03-21 16:53:00
9:53 AM,37.9,28.9,70,29.96,10.0,Calm,Calm,-,N/A,,Partly Cloudy,0,2013-03-21 17:53:00
10:53 AM,39.9,26.1,58,29.99,10.0,NNW,6.9,-,N/A,,Clear,330,2013-03-21 18:53:00
11:53 AM,39.9,23.0,51,30.01,10.0,SW,5.8,-,N/A,,Scattered Clouds,230,2013-03-21 19:53:00
12:53 PM,41.0,26.1,55,30.03,10.0,Variable,5.8,-,N/A,,Scattered Clouds,0,2013-03-21 20:53:00
1:53 PM,41.0,24.1,51,30.05,10.0,Variable,4.6,-,N/A,,Partly Cloudy,0,2013-03-21 21:53:00
2:53 PM,41.0,26.1,55,30.06,10.0,South,8.1,-,N/A,,Mostly Cloudy,180,2013-03-21 22:53:00
3:53 PM,41.0,27.0,57,30.07,10.0,SW,8.1,-,N/A,,Mostly Cloudy,220,2013-03-21 23:53:00
4:53 PM,39.9,28.9,65,30.08,10.0,SW,4.6,-,N/A,,Clear,220,2013-03-22 00:53:00
5:53 PM,37.9,28.9,70,30.09,10.0,South,3.5,-,N/A,,Mostly Cloudy,170,2013-03-22 01:53:00
6:53 PM,39.0,28.0,65,30.09,10.0,South,4.6,-,N/A,,Overcast,190,2013-03-22 02:53:00
7:53 PM,37.0,28.0,70,30.12,8.0,West,3.5,-,0.00,Snow,Light Snow,270,2013-03-22 03:53:00
8:04 PM,35.6,30.2,81,30.12,2.5,West,6.9,-,0.00,Snow,Light Snow,280,2013-03-22 04:04:00
8:16 PM,35.6,30.2,81,30.13,7.0,Calm,Calm,-,0.00,Snow,Light Snow,0,2013-03-22 04:16:00
8:31 PM,35.6,30.2,81,30.13,6.0,Calm,Calm,-,0.01,Snow,Light Snow,0,2013-03-22 04:31:00
8:42 PM,35.6,32.0,87,30.14,9.0,Calm,Calm,-,0.01,Snow,Light Snow,0,2013-03-22 04:42:00
8:50 PM,35.6,32.0,87,30.14,5.0,Calm,Calm,-,0.01,Snow,Light Snow,0,2013-03-22 04:50:00
8:53 PM,35.1,32.0,89,30.15,5.0,Calm,Calm,-,0.01,Snow,Light Snow,0,2013-03-22 04:53:00
9:51 PM,35.6,33.8,93,30.15,8.0,WNW,9.2,20.7,0.01,Snow,Light Snow,290,2013-03-22 05:51:00
9:53 PM,35.1,33.1,92,30.16,9.0,WNW,9.2,19.6,0.01,Snow,Light Snow,290,2013-03-22 05:53:00
10:28 PM,35.6,33.8,93,30.17,10.0,NNW,11.5,18.4,0.00,,Overcast,330,2013-03-22 06:28:00
10:53 PM,34.0,32.0,92,30.19,9.0,NNW,10.4,19.6,0.00,Snow,Light Snow,330,2013-03-22 06:53:00
11:31 PM,33.8,32.0,93,30.20,9.0,NNW,9.2,19.6,0.00,,Overcast,330,2013-03-22 07:31:00
11:53 PM,34.0,32.0,92,30.22,10.0,NNW,6.9,-,0.00,,Overcast,340,2013-03-22 07:53:00